This is the latest recevied weather packets stored in our database for station/object HB9TJM-8. If no packets are shown the sender has not sent any weather packets the latest 10 day(s).
| Time | Temp. | Humidity | Pressure | Rain* | Wind** | Luminosity | Snow |
|---|---|---|---|---|---|---|---|
| 1777453615 | 11.11° C | 76% | 1018.2 hPa | 0 mm | - | 411 W/m² | - |
| 1777453307 | 11.11° C | 75% | 1017.9 hPa | 0 mm | - | 389 W/m² | - |
| 1777453307 | 11.11° C | 75% | 1017.9 hPa | 0 mm | - | 389 W/m² | - |
| 1777453000 | 11.11° C | 75% | 1017.5 hPa | 0 mm | - | 355 W/m² | - |
| 1777452076 | 11.11° C | 77% | 1017.6 hPa | 0 mm | - | 351 W/m² | - |
| 1777451769 | 10.56° C | 76% | 1017.6 hPa | 0 mm | - | 326 W/m² | - |
| 1777451769 | 10.56° C | 76% | 1017.6 hPa | 0 mm | - | 326 W/m² | - |
| 1777451462 | 10.56° C | 76% | 1017.8 hPa | 0 mm | - | 348 W/m² | - |
| 1777451462 | 10.56° C | 76% | 1017.8 hPa | 0 mm | - | 348 W/m² | - |
| 1777451154 | 10.56° C | 77% | 1017.8 hPa | 0 mm | - | 306 W/m² | - |
| 1777450847 | 11.11° C | 75% | 1017.9 hPa | 0 mm | - | 329 W/m² | - |
| 1777450539 | 10.56° C | 78% | 1017.6 hPa | 0 mm | - | 426 W/m² | - |
| 1777450232 | 10.56° C | 77% | 1017.7 hPa | 0 mm | - | 291 W/m² | - |
| 1777450232 | 10.56° C | 77% | 1017.7 hPa | 0 mm | - | 291 W/m² | - |
| 1777449924 | 10.56° C | 75% | 1017.9 hPa | 0 mm | - | 321 W/m² | - |
| 1777449617 | 10° C | 76% | 1017.6 hPa | 0 mm | - | 326 W/m² | - |
| 1777449309 | 10° C | 77% | 1018.1 hPa | 0 mm | - | 251 W/m² | - |
| 1777448385 | 10° C | 78% | 1017.6 hPa | 0 mm | - | 211 W/m² | - |
| 1777448078 | 10° C | 78% | 1017.5 hPa | 0 mm | - | 260 W/m² | - |
| 1777447462 | 10° C | 80% | 1017.8 hPa | 0 mm | - | 214 W/m² | - |
| 1777447154 | 10° C | 80% | 1017.4 hPa | 0 mm | - | 190 W/m² | - |
| 1777446847 | 10° C | 82% | 1017.4 hPa | 0 mm | - | 143 W/m² | - |
| 1777446539 | 10° C | 85% | 1017.4 hPa | 0 mm | - | 136 W/m² | - |
| 1777446539 | 10° C | 85% | 1017.4 hPa | 0 mm | - | 136 W/m² | - |
| 1777446232 | 10° C | 83% | 1017.4 hPa | 0 mm | - | 128 W/m² | - |
* Rain latest hour (hover to see other rain measurements)
** Current wind speed in m/s (hover to see current wind gust speed)